Voltar ao catálogo

KUIPER-00483

AtivoComunicaçõesLEO
NORAD 68878·PAYLOAD·🇺🇸 United States

Lançado Apr 28, 2026 de Cape Canaveral Space Force Station

Loading…

Próximas Passagens (próximas 24 horas)

TLE

AtualizadoSource: CelesTrak SupGP

Época: Sep 15, 2026, 02:32 UTC

1 68878C 26095Q   26258.10561343 -.00079819  00000+0 -10441-1 0  2589
2 68878  51.8981 215.5063 0001718 335.7582 349.3010 14.80038912    10

Acompanhe KUIPER-00483 em tempo real com AllMySat

Download on the App Store